Private Wetterstation Kalkriese

Lat.: 52° 24' 26" Nord • Long.: 8° 04' 41" Ost • Höhe: 57 m ü. NN
Donnerstag, 22. Februar 2024 • 09:12:19 (UTC+1)

Tagesübersicht
Donnerstag, 22. Februar 2024


Werte bei Min., Max., etc. sind Tagesdaten (Beginn 00:00 Uhr), Diagramme zeigen den Verlauf der letzten 24 Stunden.
Wert in eckigen Klammern Min., Max., etc. der letzten 24 Std.

Letzte / Nächste Aktualisierung: 08:15 / 09:15

Außentemperatur (2 m ü. Erdboden)

 

Bodentemperatur (5 cm ü. Erdboden)

Minimum: 8,0 °C • 00:00 [ 7,8 °C • 21:30 ]   Minimum: 7,2 °C • 00:00 [ 6,7 °C • 19:20 ]
Maximum: 9,7 °C • 07:35 [ 10,2 °C • 11:55 ]   Maximum: 9,4 °C • 07:10 [ 12,8 °C • 12:25 ]
Durchschnitt: 8,8 °C [ 9,0 °C ]   Durchschnitt: 8,2 °C [ 9,0 °C ]
 
mini_currentt   mini_currentt2

Taupunkt

 

Windchill

Minimum: 6,8 °C • 00:00 [ 5,8 °C • 18:05 ]   Minimum: 5,0 °C • 00:25 [ 4,8 °C • 21:40 ]
Maximum: 9,1 °C • 07:35 [ 9,1 °C • 07:35 ]   Maximum: 8,1 °C • 08:15 [ 10,2 °C • 12:05 ]
Durchschnitt: 8,0 °C [ 7,0 °C ]   Durchschnitt: 6,6 °C [ 6,9 °C ]
 
mini_currenttp   mini_currentwc

Außenluftfeuchtigkeit

 

Luftdruck

Minimum: 92 % • 00:00 [ 77 % • 18:45 ]   Minimum: 992,4 hPa • 08:05 [ 992,4 hPa • 08:05 ]
Maximum: 96 % • 05:30 [ 96 % • 05:30 ]   Maximum: 998,5 hPa • 00:00 [ 1015,7 hPa • 09:00 ]
Durchschnitt: 95 %   Durchschnitt: 994,7 hPa
 
mini_currentf   mini_currentd

Niederschlag

 

 

heutiger Tag: 2,2 l/m²   akt. Woche: 10,6 l/m²
letzten 24 Std.: 5,6 l/m²   akt. Monat: 91,8 l/m²
Regendauer Tag: 55 Minuten   akt. Jahr: 170,0 l/m²
 
mini_currentr   mini_currentxt

Windgeschwindigkeit

 

Windböen

Maximum: 19,8 km/h • 4 Bft • S-SW • 01:40 [ 23,4 km/h • 13:10 ]   Maximum: 40,2 km/h • 6 Bft • SW • 00:00
Durchschnitt: 13,8 km/h • 3 Bft   Durchschnitt: 24,9 km/h • 3 Bft
Dom. Windrichtung: S-SW   Dom. Windrichtung: SW
 
mini_currentw   mini_currentwb
 
mini_currentwr   mini_currentwdg

Windrichtung • Windstärke • Windböen

 

 

ddis_f_current   ddis_current
 
windbft_current    

Wolkenuntergrenze (berechnet)

 

Theta-E / Äquivalenttemperatur

mini_currentcl   mini_currentt7


Wetterdaten Tagesverlauf

Stundenwerte akt. Tag
 
Uhrzeit AT +2 m BT +5 cm ThetaE LF LD WG WR Solar UV-I
00:00 8,1 °C 7,2 °C 23,5 °C 92 % 998,3 hPa 15,6 km/h S-SW 0 W/m² 0,0
01:00 8,1 °C 7,2 °C 23,9 °C 93 % 997,1 hPa 16,7 km/h S 0 W/m² 0,0
02:00 8,3 °C 7,8 °C 24,5 °C 94 % 996,3 hPa 16,9 km/h S-SW 0 W/m² 0,0
03:00 8,4 °C 7,8 °C 24,5 °C 94 % 995,2 hPa 13,1 km/h S 0 W/m² 0,0
04:00 8,6 °C 8,3 °C 25,3 °C 95 % 994,4 hPa 12,8 km/h SW 0 W/m² 0,0
05:00 8,9 °C 8,3 °C 25,7 °C 95 % 993,6 hPa 12,0 km/h S-SW 0 W/m² 0,0
06:00 9,3 °C 8,9 °C 27,0 °C 96 % 993,3 hPa 12,8 km/h W-SW 0 W/m² 0,0
07:00 9,5 °C 8,9 °C 27,2 °C 96 % 992,5 hPa 12,2 km/h SW 0 W/m² 0,0
08:00 9,7 °C 9,4 °C 27,9 °C 96 % 992,5 hPa 13,4 km/h SW 10 W/m² 0,0
09:00 -- °C -- °C -- °C -- % -- hPa -- km/h -- -- W/m² --
10:00 -- °C -- °C -- °C -- % -- hPa -- km/h -- -- W/m² --
11:00 -- °C -- °C -- °C -- % -- hPa -- km/h -- -- W/m² --
12:00 -- °C -- °C -- °C -- % -- hPa -- km/h -- -- W/m² --
13:00 -- °C -- °C -- °C -- % -- hPa -- km/h -- -- W/m² --
14:00 -- °C -- °C -- °C -- % -- hPa -- km/h -- -- W/m² --
15:00 -- °C -- °C -- °C -- % -- hPa -- km/h -- -- W/m² --
16:00 -- °C -- °C -- °C -- % -- hPa -- km/h -- -- W/m² --
17:00 -- °C -- °C -- °C -- % -- hPa -- km/h -- -- W/m² --
18:00 -- °C -- °C -- °C -- % -- hPa -- km/h -- -- W/m² --
19:00 -- °C -- °C -- °C -- % -- hPa -- km/h -- -- W/m² --
20:00 -- °C -- °C -- °C -- % -- hPa -- km/h -- -- W/m² --
21:00 -- °C -- °C -- °C -- % -- hPa -- km/h -- -- W/m² --
22:00 -- °C -- °C -- °C -- % -- hPa -- km/h -- -- W/m² --
23:00 -- °C -- °C -- °C -- % -- hPa -- km/h -- -- W/m² --


Wetterdaten Verlauf der letzten 24 Stunden

Stundenwerte
 
Uhrzeit AT +2 m BT +5 cm ThetaE LF LD WG WR Solar UV-I
7:00 (vor 1 Std.) 9,6 °C 9,4 °C 27,6 °C 96 % 992,6 hPa 12,8 km/h SW 0 W/m² 0,0
6:00 (vor 2 Std.) 9,3 °C 8,9 °C 27,0 °C 96 % 993,0 hPa 12,0 km/h SW 0 W/m² 0,0
5:00 (vor 3 Std.) 9,0 °C 8,3 °C 25,9 °C 95 % 993,5 hPa 14,7 km/h S-SW 0 W/m² 0,0
4:00 (vor 4 Std.) 8,7 °C 8,3 °C 25,3 °C 95 % 994,2 hPa 12,2 km/h S-SW 0 W/m² 0,0
3:00 (vor 5 Std.) 8,4 °C 7,8 °C 24,7 °C 95 % 995,0 hPa 13,6 km/h SW 0 W/m² 0,0
2:00 (vor 6 Std.) 8,3 °C 7,8 °C 24,5 °C 94 % 996,1 hPa 15,5 km/h SW 0 W/m² 0,0
1:00 (vor 7 Std.) 8,2 °C 7,2 °C 23,9 °C 93 % 996,9 hPa 17,8 km/h S-SW 0 W/m² 0,0
0:00 (vor 8 Std.) 8,1 °C 7,2 °C 23,5 °C 92 % 998,0 hPa 18,3 km/h S 0 W/m² 0,0
23:00 (vor 9 Std.) 7,8 °C 7,2 °C 22,9 °C 91 % 999,3 hPa 17,1 km/h S 0 W/m² 0,0
22:00 (vor 10 Std.) 7,8 °C 6,7 °C 22,6 °C 89 % 1000,4 hPa 17,6 km/h S 0 W/m² 0,0
21:00 (vor 11 Std.) 7,9 °C 6,7 °C 22,8 °C 88 % 1001,4 hPa 18,0 km/h S 0 W/m² 0,0
20:00 (vor 12 Std.) 8,4 °C 6,7 °C 23,5 °C 86 % 1002,6 hPa 16,0 km/h S-SO 0 W/m² 0,0
19:00 (vor 13 Std.) 9,3 °C 7,2 °C 24,4 °C 80 % 1004,0 hPa 15,2 km/h S 0 W/m² 0,0
18:00 (vor 14 Std.) 9,6 °C 8,9 °C 23,9 °C 78 % 1005,3 hPa 15,7 km/h S 0 W/m² 0,0
17:00 (vor 15 Std.) 9,3 °C 8,3 °C 23,9 °C 80 % 1006,2 hPa 11,0 km/h SO 11 W/m² 0,0
16:00 (vor 16 Std.) 9,4 °C 9,4 °C 24,3 °C 80 % 1007,2 hPa 15,5 km/h S-SO 58 W/m² 0,0
15:00 (vor 17 Std.) 9,7 °C 10,6 °C 25,0 °C 82 % 1009,3 hPa 15,0 km/h S-SW 128 W/m² 0,0
14:00 (vor 18 Std.) 9,6 °C 10,6 °C 25,0 °C 83 % 1010,4 hPa 12,0 km/h S 140 W/m² 0,4
13:00 (vor 19 Std.) 10,1 °C 11,1 °C 25,2 °C 79 % 1012,3 hPa 19,3 km/h S-SW 143 W/m² 0,5
12:00 (vor 20 Std.) 10,1 °C 11,1 °C 25,4 °C 80 % 1013,3 hPa 14,6 km/h SW 115 W/m² 0,1
11:00 (vor 21 Std.) 9,8 °C 11,7 °C 25,3 °C 84 % 1014,3 hPa 14,3 km/h SW 168 W/m² 0,6
10:00 (vor 22 Std.) 9,2 °C 10,6 °C 24,6 °C 87 % 1015,0 hPa 13,3 km/h S-SW 136 W/m² 0,0
9:00 (vor 23 Std.) 8,8 °C 8,9 °C 24,0 °C 88 % 1015,4 hPa 18,1 km/h W-SW 39 W/m² 0,0
8:00 (vor 24 Std.) 8,7 °C 8,9 °C 24,2 °C 89 % 1015,7 hPa 14,9 km/h SW 53 W/m² 0,0